Zurück zum Katalog

STARLINK-38033

AktivKommunikationSSO
NORAD 69739·PAYLOAD·🇺🇸 United States

Gestartet Jul 2, 2026 von Vandenberg Space Force Base

Loading…

Nächste Überflüge (nächste 24 Stunden)

TLE

AktuellSource: CelesTrak SupGP

Epoche: Sep 15, 2026, 03:48 UTC

1 69739C 26150A   26258.15881944 -.00046437  00000+0 -14413-2 0  2589
2 69739  97.2852  97.1119 0001896  91.7462 282.3841 15.33466918    15

Verfolge STARLINK-38033 in Echtzeit mit AllMySat

Download on the App Store